OBJECT CG, 58334

Orbit data source: Space-Track

You're viewing an Uncataloged Satellite

Recently launched and/or uncataloged satellites may have evolving metadata. Metadata may include but not limited to: Owner, Maufacturer, Bus, Motor, and Mission.

OBJECT CG, 58334 is a satellite in SSO that was launched on Sat, 11 Nov 2023 UTC via an FALCON 9 launch vehicle from the Air Force Western Test Range (AFWTR). Unknown objects in Earth's orbit typically refer to objects detected orbiting the Earth but have not yet been identified or cataloged. These objects could be anything from previously untracked satellites, spent rocket stages, debris from satellite collisions, or even natural meteoroids temporarily captured by Earth's gravity.

Loading next visibility...
Identifier
58334, 2023-174CG
Orbit
SSO
Country
Flag of TBDTBD
Related business
Manufacturer
Outpost Tech
Mission
Operational Commercial Technology
Bus & Motor
CUBESAT 3U, Unknown motor
Mass
3 kg wet, 3 kg dry
Launch date (UTC)
2023-11-11 (2 years ago)
Launch vehicle
FALCON 9
Launch site
Air Force Western Test Range (AFWTR)
Object type
Unknown
Shape & HBR
Box, 0.1 m
Radar Cross Section
0.035 m², Small (<0.1 m²)

Expand to show TLE details & history
Last TLE update: 18 hours ago

TLE from 18 hours ago
0 OBJECT CG
1 58334U 23174CG  25300.94931729  .00029703  00000-0  70439-3 0  9991
2 58334  97.4128  22.8245 0006743 238.1284 121.9307 15.41664731109862
Epoch: 2025-10-27T22:47Z
TLE epoch observation values (Epoch: 2025-10-27T22:47:01.013Z)
Latitude
-0.00006°
Longitude
4.52646°
Altitude
446.75 km
Speed
7.643 km/s
True Right ascension
01h 31m 17s
True Declination
0° 00' 00"
Sunlit
Object was in full shadow at epoch
Visualization orbit readout
Latitude
Unknown
Longitude
Unknown
Altitude
Unknown
Speed
Unknown
Apparent Right ascension
Unknown
Apparent Declination
Unknown
Sunlit
N/A
Visualization observer readout
Local Sidereal Time
11:59:31
Azimuth
Unknown
Elevation
Unknown
Doppler factor
Unknown
Orbital elements
Apogee altitude
442.729 km
Perigee altitude
433.537 km
Semi-major axis
6,816.27 km
Eccentricity
0.00067
Inclination
97.4128°
RAAN
22.8245°
Arg. of periapsis
238.1284°
True anomaly
121.99625°
Mean anomaly
121.9307°
Eccentric anomaly
121.96348°
Mean motion
3.85676 °/min
Orbital period
93.34 mins
BSTAR
0.00070439
Loading maneuver chart data...
Computing Atmospheric mass density...
Loading historical data...
Loading historical data...
Loading historical data...
Loading historical data...
Loading historical data...
Loading historical data...
Loading historical data...

Documentation

Showing up to 5 results
|